sat.trackr.live / text

‹ back to catalog

STARLINK-1402

NORAD 45685 · 2020-035AE

PAYLOAD ACTIVE UNKNOWN

§ Identity

Operator
Country
US
Launch date
2020-06-04
Launch site
AFETR
Launch vehicle
Mass (kg)
RCS (m²)

Purposes: comms

External: N2YO · Heavens-Above · Gunter

§ Orbital elements

Epoch: 2026-05-25T00:33:55.190016Z

Period
92.54 min
Inclination
53.0424°
Eccentricity
0.0006579
Mean motion
15.56152241 rev/d
Perigee alt
394.3 km
Apogee alt
403.3 km
Semi-major
6,776.9 km
B*
1.0279e-3
RAAN
16.6217°
Arg perigee
128.8635°
Mean anomaly
231.2963°
Rev number
33,119

§ Raw data

STARLINK-14021 45685U 20035AE  26145.02355544  .00073452  00000+0  10279-2 0  99952 45685  53.0424  16.6217 0006579 128.8635 231.2963 15.56152241331196

JSON: /api/v1/satellites/45685 · /tle

For live sub-satellite position, see the globe view (requires WebGL).

§ Visibility from observer

Set your observer location to see the next 7 days of passes ≥ 10°. The values pass through the URL so the page stays shareable.

No JS? Fill the form by hand. The geolocation button needs JavaScript.